TimeEST,TemperatureF,Dew PointF,Humidity,Sea Level PressureIn,VisibilityMPH,Wind Direction,Wind SpeedMPH,Gust SpeedMPH,PrecipitationIn,Events,Conditions,WindDirDegrees,DateUTC
12:15 AM,48.2,44.6,87,29.99,10.0,SW,8.1,-,N/A,,Clear,230,2013-02-06 05:15:00
12:35 AM,48.2,44.6,87,29.99,10.0,WSW,6.9,-,N/A,,Clear,250,2013-02-06 05:35:00
12:55 AM,42.8,41.0,93,30.00,10.0,Calm,Calm,-,N/A,,Clear,0,2013-02-06 05:55:00
1:15 AM,44.6,44.6,100,29.99,10.0,Calm,Calm,-,N/A,,Clear,0,2013-02-06 06:15:00
1:35 AM,42.8,42.8,100,30.00,10.0,Calm,Calm,-,N/A,,Clear,0,2013-02-06 06:35:00
1:55 AM,39.2,39.2,100,30.00,10.0,Calm,Calm,-,N/A,,Clear,0,2013-02-06 06:55:00
2:15 AM,41.0,41.0,100,30.00,5.0,Calm,Calm,-,N/A,,Clear,0,2013-02-06 07:15:00
2:35 AM,39.2,39.2,100,30.01,0.8,Calm,Calm,-,N/A,,Mist,0,2013-02-06 07:35:00
3:15 AM,37.4,37.4,100,30.01,3.0,Calm,Calm,-,N/A,,Clear,0,2013-02-06 08:15:00
3:35 AM,37.4,37.4,100,30.01,2.0,Calm,Calm,-,N/A,,Clear,0,2013-02-06 08:35:00
3:55 AM,37.4,37.4,100,30.02,0.5,Calm,Calm,-,N/A,Fog,Fog,0,2013-02-06 08:55:00
4:15 AM,37.4,37.4,100,30.03,1.2,Calm,Calm,-,N/A,,Clear,0,2013-02-06 09:15:00
4:55 AM,35.6,35.6,100,30.04,3.0,WSW,12.7,-,N/A,,Clear,250,2013-02-06 09:55:00
5:15 AM,35.6,35.6,100,30.04,1.5,Calm,Calm,-,N/A,,Clear,0,2013-02-06 10:15:00
5:35 AM,33.8,33.8,100,30.05,1.5,WSW,9.2,-,N/A,,Clear,250,2013-02-06 10:35:00
5:55 AM,35.6,35.6,100,30.06,1.0,Calm,Calm,-,N/A,,Clear,0,2013-02-06 10:55:00
6:15 AM,35.6,35.6,100,30.07,4.0,Calm,Calm,-,N/A,,Clear,0,2013-02-06 11:15:00
6:35 AM,33.8,33.8,100,30.07,1.5,SW,6.9,-,N/A,,Clear,230,2013-02-06 11:35:00
6:55 AM,33.8,33.8,100,30.08,0.2,WSW,8.1,-,N/A,Fog,Fog,240,2013-02-06 11:55:00
7:15 AM,33.8,33.8,100,30.09,1.2,Calm,Calm,-,N/A,,Overcast,0,2013-02-06 12:15:00
7:35 AM,33.8,33.8,100,30.10,0.5,Calm,Calm,-,N/A,Fog,Fog,0,2013-02-06 12:35:00
7:55 AM,33.8,33.8,100,30.11,0.2,Calm,Calm,-,N/A,Fog,Fog,0,2013-02-06 12:55:00
8:15 AM,35.6,35.6,100,30.12,0.2,Calm,Calm,-,N/A,Fog,Fog,0,2013-02-06 13:15:00
8:55 AM,42.8,42.8,100,30.14,0.5,Calm,Calm,-,N/A,Fog,Fog,0,2013-02-06 13:55:00
9:15 AM,44.6,44.6,100,30.15,7.0,ENE,3.5,-,N/A,,Clear,70,2013-02-06 14:15:00
9:35 AM,46.4,46.4,100,30.15,9.0,ENE,6.9,-,N/A,,Clear,60,2013-02-06 14:35:00
9:55 AM,48.2,48.2,100,30.16,10.0,ENE,10.4,-,N/A,,Clear,60,2013-02-06 14:55:00
10:15 AM,53.6,46.4,77,30.17,10.0,NE,9.2,16.1,N/A,,Clear,40,2013-02-06 15:15:00
10:35 AM,55.4,39.2,54,30.16,10.0,NE,15.0,20.7,N/A,,Clear,40,2013-02-06 15:35:00
10:55 AM,57.2,39.2,51,30.17,10.0,NE,15.0,20.7,N/A,,Clear,40,2013-02-06 15:55:00
11:35 AM,59.0,35.6,42,30.17,10.0,NE,8.1,16.1,N/A,,Clear,50,2013-02-06 16:35:00
11:55 AM,59.0,33.8,39,30.16,10.0,NNE,6.9,-,N/A,,Clear,20,2013-02-06 16:55:00
12:15 PM,60.8,33.8,36,30.16,10.0,NNE,6.9,-,N/A,,Clear,20,2013-02-06 17:15:00
12:35 PM,62.6,33.8,34,30.15,10.0,ENE,5.8,-,N/A,,Clear,60,2013-02-06 17:35:00
12:55 PM,62.6,33.8,34,30.14,10.0,NNE,15.0,18.4,N/A,,Clear,30,2013-02-06 17:55:00
1:15 PM,64.4,32.0,30,30.14,10.0,NE,12.7,-,N/A,,Clear,50,2013-02-06 18:15:00
1:35 PM,62.6,32.0,32,30.13,10.0,WSW,4.6,-,N/A,,Clear,240,2013-02-06 18:35:00
1:55 PM,64.4,28.4,26,30.12,10.0,NNW,9.2,-,N/A,,Clear,330,2013-02-06 18:55:00
2:15 PM,64.4,28.4,26,30.12,8.0,North,8.1,16.1,N/A,,Clear,350,2013-02-06 19:15:00
2:35 PM,64.4,28.4,26,30.12,10.0,North,4.6,25.3,N/A,,Clear,350,2013-02-06 19:35:00
2:55 PM,64.4,28.4,26,30.12,10.0,WSW,12.7,24.2,N/A,,Clear,240,2013-02-06 19:55:00
3:15 PM,64.4,28.4,26,30.12,10.0,NW,12.7,27.6,N/A,,Clear,320,2013-02-06 20:15:00
3:35 PM,64.4,30.2,28,30.12,10.0,West,11.5,20.7,N/A,,Clear,260,2013-02-06 20:35:00
3:55 PM,64.4,30.2,28,30.12,10.0,NNW,15.0,18.4,N/A,,Clear,340,2013-02-06 20:55:00
4:15 PM,64.4,30.2,28,30.12,10.0,NW,11.5,-,N/A,,Clear,320,2013-02-06 21:15:00
4:35 PM,64.4,30.2,28,30.12,10.0,WNW,8.1,-,N/A,,Clear,290,2013-02-06 21:35:00
4:55 PM,62.6,28.4,27,30.13,10.0,NNW,13.8,17.3,N/A,,Clear,340,2013-02-06 21:55:00
5:15 PM,62.6,28.4,27,30.13,10.0,North,10.4,-,N/A,,Clear,10,2013-02-06 22:15:00
5:35 PM,60.8,28.4,29,30.14,10.0,NNW,8.1,-,N/A,,Clear,340,2013-02-06 22:35:00
5:55 PM,57.2,30.2,36,30.15,10.0,NNW,5.8,-,N/A,,Clear,340,2013-02-06 22:55:00
6:15 PM,55.4,30.2,38,30.16,10.0,Calm,Calm,-,N/A,,Clear,0,2013-02-06 23:15:00
6:35 PM,51.8,32.0,47,30.16,10.0,Calm,Calm,-,N/A,,Clear,0,2013-02-06 23:35:00
6:55 PM,51.8,30.2,44,30.17,10.0,Calm,Calm,-,N/A,,Clear,0,2013-02-06 23:55:00
7:15 PM,50.0,32.0,50,30.17,10.0,Calm,Calm,-,N/A,,Clear,0,2013-02-07 00:15:00
7:55 PM,48.2,32.0,54,30.18,10.0,Calm,Calm,-,N/A,,Clear,0,2013-02-07 00:55:00
8:15 PM,46.4,32.0,57,30.18,10.0,Calm,Calm,-,N/A,,Clear,0,2013-02-07 01:15:00
8:35 PM,46.4,32.0,57,30.19,10.0,Calm,Calm,-,N/A,,Clear,0,2013-02-07 01:35:00
8:55 PM,44.6,32.0,61,30.20,10.0,Calm,Calm,-,N/A,,Clear,0,2013-02-07 01:55:00
9:15 PM,42.8,32.0,66,30.19,10.0,Calm,Calm,-,N/A,,Clear,0,2013-02-07 02:15:00
9:35 PM,39.2,33.8,81,30.19,10.0,NE,9.2,-,N/A,,Clear,50,2013-02-07 02:35:00
9:55 PM,44.6,32.0,61,30.19,10.0,NE,9.2,-,N/A,,Clear,50,2013-02-07 02:55:00
10:15 PM,46.4,30.2,53,30.20,10.0,NE,9.2,-,N/A,,Clear,50,2013-02-07 03:15:00
10:35 PM,46.4,28.4,50,30.22,10.0,NE,6.9,-,N/A,,Clear,50,2013-02-07 03:35:00
10:55 PM,46.4,26.6,46,30.24,10.0,ENE,6.9,-,N/A,,Clear,70,2013-02-07 03:55:00
11:15 PM,42.8,28.4,57,30.23,10.0,NE,9.2,-,N/A,,Clear,50,2013-02-07 04:15:00
11:35 PM,44.6,28.4,53,30.22,10.0,NE,12.7,-,N/A,,Clear,40,2013-02-07 04:35:00
11:55 PM,44.6,28.4,53,30.22,10.0,ENE,10.4,-,N/A,,Clear,60,2013-02-07 04:55:00